This is the latest recevied weather packets stored in our database for station/object N3FAA. If no packets are shown the sender has not sent any weather packets the latest 10 day(s).
| Time | Temp. | Humidity | Pressure | Rain* | Wind** | Luminosity | Snow |
|---|---|---|---|---|---|---|---|
| 1777534783 | 12.22° C | 65% | 1011.9 hPa | 0 mm | - | 0 W/m² | - |
| 1777534480 | 12.22° C | 64% | 1012 hPa | 0 mm | - | 0 W/m² | - |
| 1777534178 | 12.22° C | 65% | 1012 hPa | 0 mm | - | 0 W/m² | - |
| 1777533875 | 12.22° C | 65% | 1012 hPa | 0 mm | - | 0 W/m² | - |
| 1777533572 | 12.22° C | 65% | 1012.1 hPa | 0 mm | - | 0 W/m² | - |
| 1777533268 | 12.22° C | 65% | 1012 hPa | 0 mm | - | 0 W/m² | - |
| 1777532964 | 12.22° C | 63% | 1012.1 hPa | 0 mm | - | 0 W/m² | - |
| 1777532661 | 12.78° C | 63% | 1012.2 hPa | 0 mm | - | 0 W/m² | - |
| 1777532359 | 12.78° C | 63% | 1012.1 hPa | 0 mm | - | 0 W/m² | - |
| 1777532055 | 12.78° C | 62% | 1012 hPa | 0 mm | - | 0 W/m² | - |
| 1777531750 | 12.78° C | 61% | 1012 hPa | 0 mm | - | 0 W/m² | - |
| 1777531447 | 12.78° C | 59% | 1012.2 hPa | 0 mm | - | 0 W/m² | - |
| 1777531145 | 13.33° C | 59% | 1012.2 hPa | 0 mm | - | 0 W/m² | - |
| 1777530843 | 13.89° C | 59% | 1012.1 hPa | 0 mm | - | 0 W/m² | - |
| 1777530540 | 13.89° C | 58% | 1012 hPa | 0 mm | - | 0 W/m² | - |
| 1777530235 | 13.89° C | 58% | 1012 hPa | 0 mm | - | 0 W/m² | - |
| 1777529933 | 13.89° C | 58% | 1012.1 hPa | 0 mm | - | 0 W/m² | - |
| 1777529629 | 13.89° C | 57% | 1012 hPa | 0 mm | - | 0 W/m² | - |
| 1777529327 | 13.89° C | 56% | 1011.9 hPa | 0 mm | - | 0 W/m² | - |
| 1777529022 | 14.44° C | 55% | 1012.2 hPa | 0 mm | - | 0 W/m² | - |
| 1777528718 | 13.89° C | 55% | 1012.3 hPa | 0 mm | - | 0 W/m² | - |
| 1777528416 | 13.89° C | 55% | 1012.3 hPa | 0 mm | - | 0 W/m² | - |
| 1777528114 | 13.89° C | 56% | 1012.4 hPa | 0 mm | - | 0 W/m² | - |
| 1777527811 | 13.89° C | 56% | 1012.3 hPa | 0 mm | - | 0 W/m² | - |
| 1777527506 | 13.89° C | 56% | 1012.3 hPa | 0 mm | - | 0 W/m² | - |
* Rain latest hour (hover to see other rain measurements)
** Current wind speed in m/s (hover to see current wind gust speed)